Weather History for Alghero, Italy

Change the Weather History Date:

Thursday, May 3, 2012

  Actual Average Record
Temperature  
Mean Temperature 56 °F -  
Max Temperature 69 °F 74 °F 80 °F (2006)
Min Temperature 42 °F 53 °F 42 °F (1997)
Degree Days  
Heating Degree Days 10    
Growing Degree Days 6 (Base 50)    
Moisture  
Dew Point 48 °F    
Average Humidity 74    
Maximum Humidity 100    
Minimum Humidity 38    
Precipitation  
Precipitation 0.00 in 0.03 in - ()
Sea Level Pressure  
Sea Level Pressure 29.98 in    
Wind  
Wind Speed 4 mph ()    
Max Wind Speed 12 mph    
Max Gust Speed -    
Visibility 6.2 miles    
Events Fog    
Averages and records for this station are not official NWS values.
T = Trace of Precipitation, MM = Missing Value Source: Averaged Metar Reports

Daily Weather History Graph

Daily Weather History Graph

Search for Another Location

Airport:

Trip Planner

Search our weather history database for the weather conditions in past years. The results will help you decide how hot, cold, wet, or windy it might be!

Date:

Astronomy

May. 03, 2012 Rise Set
Actual Time 6:22 AM CEST 8:25 PM CEST
Civil Twilight 5:52 AM CEST 8:55 PM CEST
Nautical Twilight 5:16 AM CEST 9:31 PM CEST
Astronomical Twilight 4:36 AM CEST 10:11 PM CEST
Moon 5:29 PM CEST (5/3) 4:18 AM CEST (5/3)
Length of Visible Light 15h 02m
Length of Day
14h 02m
Waxing Gibbous, 89% of the Moon is Illuminated
May 3
Waxing Gibbous
May 6
Full
May 12
Last Quarter
May 21
New
May 28
First Quarter

Hourly Weather History & Observations

Time (CEST) Temp. Windchill Dew Point Humidity Pressure Visibility Wind Dir Wind Speed Gust Speed Precip Events Conditions
12:20 AM 50.0 °F - 48.2 °F 94% 30.04 in - NE 3.5 mph - N/A   Clear
12:50 AM 50.0 °F - 50.0 °F 100% 30.04 in - NNE 4.6 mph - N/A   Clear
1:20 AM 51.8 °F - 51.8 °F 100% 30.04 in - North 4.6 mph - N/A   Clear
1:50 AM 50.0 °F - 50.0 °F 100% 30.04 in - North 2.3 mph - N/A   Clear
2:20 AM 48.2 °F - 48.2 °F 100% 30.01 in - Calm Calm - N/A   Clear
2:50 AM 48.2 °F - 48.2 °F 100% 30.01 in - Variable 1.2 mph - N/A   Clear
3:20 AM 46.4 °F - 46.4 °F 100% 30.01 in 6.2 mi Variable 1.2 mph - N/A Fog Patches of Fog
3:50 AM 46.4 °F - 46.4 °F 100% 30.01 in - Calm Calm - N/A   Clear
4:20 AM 46.4 °F - 46.4 °F 100% 30.04 in - North 2.3 mph - N/A   Clear
4:50 AM 44.6 °F 42.2 °F 44.6 °F 100% 30.01 in - North 4.6 mph - N/A   Clear
5:20 AM 42.8 °F 40.1 °F 42.8 °F 100% 30.01 in - NNE 4.6 mph - N/A   Clear
5:50 AM 42.8 °F 41.1 °F 42.8 °F 100% 30.01 in - East 3.5 mph - N/A   Clear
6:20 AM 42.8 °F 41.1 °F 42.8 °F 100% 30.01 in - NE 3.5 mph - N/A   Clear
6:50 AM 42.8 °F - 42.8 °F 100% 30.01 in - Calm Calm - N/A   Clear
7:20 AM 46.4 °F - 46.4 °F 100% 30.01 in - Variable 2.3 mph - N/A   Clear
7:50 AM 48.2 °F - 48.2 °F 100% 30.01 in - Variable 2.3 mph - N/A   Clear
8:20 AM 51.8 °F - 51.8 °F 100% 30.01 in - Variable 2.3 mph - N/A   Clear
9:20 AM 59.0 °F - 53.6 °F 82% 30.01 in - NE 5.8 mph - N/A   Clear
9:50 AM 62.6 °F - 50.0 °F 63% 29.98 in - NE 6.9 mph - N/A   Clear
10:20 AM 64.4 °F - 51.8 °F 64% 29.98 in - ENE 5.8 mph - N/A   Clear
10:50 AM 66.2 °F - 50.0 °F 56% 29.98 in - NNE 5.8 mph - N/A   Clear
11:20 AM 66.2 °F - 48.2 °F 52% 29.98 in - NNE 5.8 mph - N/A   Clear
11:50 AM 68.0 °F - 46.4 °F 46% 29.98 in - North 6.9 mph - N/A   Clear
12:20 PM 68.0 °F - 48.2 °F 49% 29.98 in - NNE 6.9 mph - N/A   Clear
12:50 PM 69.8 °F - 46.4 °F 43% 29.98 in - NNE 8.1 mph - N/A   Clear
1:20 PM 69.8 °F - 44.6 °F 40% 29.98 in 6.2 mi NE 6.9 mph - N/A   Partly Cloudy
1:50 PM 69.8 °F - 42.8 °F 38% 29.98 in - NNE 6.9 mph - N/A   Clear
2:20 PM 69.8 °F - 44.6 °F 40% 29.98 in - Variable 3.5 mph - N/A   Clear
2:50 PM 69.8 °F - 44.6 °F 40% 29.98 in - Variable 4.6 mph - N/A   Clear
3:20 PM 69.8 °F - 51.8 °F 53% 29.95 in - Variable 3.5 mph - N/A   Clear
3:50 PM 68.0 °F - 53.6 °F 60% 29.95 in - West 11.5 mph - N/A   Clear
4:20 PM 68.0 °F - 51.8 °F 56% 29.95 in - West 9.2 mph - N/A   Clear
4:50 PM 68.0 °F - 50.0 °F 52% 29.95 in - West 10.4 mph - N/A   Clear
5:20 PM 66.2 °F - 50.0 °F 56% 29.92 in - West 8.1 mph - N/A   Clear
5:50 PM 66.2 °F - 48.2 °F 52% 29.92 in - West 9.2 mph - N/A   Clear
6:20 PM 66.2 °F - 46.4 °F 49% 29.92 in - West 9.2 mph - N/A   Clear
6:50 PM 64.4 °F - 46.4 °F 52% 29.92 in - WNW 8.1 mph - N/A   Clear
7:20 PM 62.6 °F - 46.4 °F 55% 29.92 in - WNW 9.2 mph - N/A   Clear
7:50 PM 60.8 °F - 48.2 °F 63% 29.92 in - WNW 5.8 mph - N/A   Clear
8:20 PM 59.0 °F - 48.2 °F 67% 29.95 in - NNW 4.6 mph - N/A   Clear
8:50 PM 59.0 °F - 50.0 °F 72% 29.95 in - NW 4.6 mph - N/A   Clear
9:20 PM 57.2 °F - 48.2 °F 72% 29.95 in - North 3.5 mph - N/A   Clear
9:50 PM 55.4 °F - 48.2 °F 77% 29.95 in - North 3.5 mph - N/A   Clear
10:20 PM 53.6 °F - 48.2 °F 82% 29.95 in - North 2.3 mph - N/A   Clear
10:50 PM 51.8 °F - 48.2 °F 88% 29.95 in - Variable 1.2 mph - N/A   Clear
11:20 PM 50.0 °F - 46.4 °F 87% 29.95 in - Variable 2.3 mph - N/A   Clear
11:50 PM 50.0 °F - 48.2 °F 94% 29.95 in - Variable 1.2 mph - N/A   Clear